Change the Weather History Date:

Monday, August 20, 2012

  Actual Average Record
Temperature  
Mean Temperature 56 °F -  
Max Temperature 75 °F 77 °F 95 °F (1976)
Min Temperature 37 °F 51 °F 33 °F (1950)
Degree Days  
Heating Degree Days 9    
Growing Degree Days 6 (Base 50)    
Moisture  
Dew Point 44 °F    
Average Humidity 66    
Maximum Humidity 100    
Minimum Humidity 29    
Precipitation  
Precipitation 0.00 in - - ()
Sea Level Pressure  
Sea Level Pressure 30.03 in    
Wind  
Wind Speed 2 mph (NW)    
Max Wind Speed 10 mph    
Max Gust Speed -    
Visibility 10 miles    
Events      
Averages and records for this station are not official NWS values.
T = Trace of Precipitation, MM = Missing Value Source: NWS Daily Summary

Daily Weather History Graph

Daily Weather History Graph

Search for Another Location

Airport or City:

Trip Planner

Search our weather history database for the weather conditions in past years. The results will help you decide how hot, cold, wet, or windy it might be!

Date:

Astronomy

Aug. 20, 2012 Rise Set
Actual Time 6:19 AM CDT 8:12 PM CDT
Civil Twilight 5:47 AM CDT 8:43 PM CDT
Nautical Twilight 5:08 AM CDT 9:22 PM CDT
Astronomical Twilight 4:25 AM CDT 10:05 PM CDT
Moon 9:57 AM CDT (8/20) 9:18 PM CDT (8/20)
Length of Visible Light 14h 56m
Length of Day
13h 52m
Waxing Crescent, 11% of the Moon is Illuminated
Aug 20
Waxing Crescent
Aug 24
First Quarter
Aug 31
Full
Sep 8
Last Quarter
Sep 15
New

Hourly Weather History & Observations

Time (CDT) Temp. Dew Point Humidity Pressure Visibility Wind Dir Wind Speed Gust Speed Precip Events Conditions
12:18 AM 46.4 °F 44.6 °F 93% 30.04 in 10.0 mi Calm Calm - N/A   Clear
12:37 AM 44.6 °F 42.8 °F 93% 30.05 in 10.0 mi Calm Calm - N/A   Clear
12:58 AM 44.6 °F 42.8 °F 93% 30.05 in 10.0 mi Calm Calm - N/A   Clear
1:18 AM 44.6 °F 42.8 °F 93% 30.04 in 10.0 mi Calm Calm - N/A   Clear
1:38 AM 44.6 °F 44.6 °F 100% 30.04 in 10.0 mi Calm Calm - N/A   Clear
1:58 AM 44.6 °F 44.6 °F 100% 30.04 in 10.0 mi Calm Calm - N/A   Clear
2:18 AM 42.8 °F 42.8 °F 100% 30.04 in 10.0 mi Calm Calm - N/A   Clear
2:38 AM 44.6 °F 42.8 °F 93% 30.04 in 10.0 mi Calm Calm - N/A   Clear
2:58 AM 42.8 °F 41.0 °F 93% 30.04 in 10.0 mi Calm Calm - N/A   Clear
3:18 AM 42.8 °F 41.0 °F 93% 30.04 in 7.0 mi Calm Calm - N/A   Clear
3:38 AM 42.8 °F 41.0 °F 93% 30.04 in 10.0 mi Calm Calm - N/A   Clear
3:58 AM 42.8 °F 41.0 °F 93% 30.04 in 10.0 mi Calm Calm - N/A   Clear
4:18 AM 42.8 °F 41.0 °F 93% 30.04 in 7.0 mi Calm Calm - N/A   Clear
4:38 AM 41.0 °F 41.0 °F 100% 30.04 in 10.0 mi Calm Calm - N/A   Clear
4:58 AM 41.0 °F 41.0 °F 100% 30.04 in 10.0 mi Calm Calm - N/A   Clear
5:18 AM 41.0 °F 39.2 °F 93% 30.04 in 10.0 mi Calm Calm - N/A   Clear
5:38 AM 41.0 °F 39.2 °F 93% 30.04 in 10.0 mi Calm Calm - N/A   Clear
5:57 AM 41.0 °F 39.2 °F 93% 30.04 in 10.0 mi Calm Calm - N/A   Clear
6:18 AM 39.2 °F 37.4 °F 93% 30.04 in 10.0 mi Calm Calm - N/A   Clear
6:38 AM 37.4 °F 37.4 °F 100% 30.05 in 10.0 mi Calm Calm - N/A   Clear
6:58 AM 41.0 °F 39.2 °F 93% 30.05 in 10.0 mi Calm Calm - N/A   Clear
7:18 AM 42.8 °F 41.0 °F 93% 30.05 in 10.0 mi Calm Calm - N/A   Clear
7:38 AM 44.6 °F 44.6 °F 100% 30.05 in 10.0 mi Calm Calm - N/A   Clear
7:58 AM 48.2 °F 46.4 °F 93% 30.05 in 10.0 mi Calm Calm - N/A   Clear
8:18 AM 51.8 °F 50.0 °F 94% 30.05 in 10.0 mi Calm Calm - N/A   Clear
8:38 AM 55.4 °F 50.0 °F 82% 30.05 in 10.0 mi Calm Calm - N/A   Clear
8:58 AM 59.0 °F 46.4 °F 63% 30.05 in 10.0 mi West 3.5 mph - N/A   Clear
9:18 AM 64.4 °F 50.0 °F 59% 30.05 in 10.0 mi WNW 3.5 mph - N/A   Clear
9:38 AM 64.4 °F 46.4 °F 52% 30.05 in 10.0 mi NNW 3.5 mph - N/A   Clear
9:58 AM 68.0 °F 44.6 °F 43% 30.05 in 10.0 mi WNW 6.9 mph - N/A   Clear
10:18 AM 69.8 °F 46.4 °F 43% 30.05 in 10.0 mi WNW 8.1 mph - N/A   Clear
10:38 AM 69.8 °F 48.2 °F 46% 30.05 in 10.0 mi NNW 5.8 mph - N/A   Clear
10:58 AM 69.8 °F 44.6 °F 40% 30.04 in 10.0 mi NW 6.9 mph - N/A   Clear
11:18 AM 69.8 °F 46.4 °F 43% 30.04 in 10.0 mi WNW 5.8 mph - N/A   Clear
11:38 AM 69.8 °F 42.8 °F 38% 30.04 in 10.0 mi NNW 10.4 mph - N/A   Scattered Clouds
11:58 AM 69.8 °F 41.0 °F 35% 30.04 in 10.0 mi NNW 9.2 mph - N/A   Clear
12:18 PM 71.6 °F 39.2 °F 31% 30.04 in 10.0 mi NW 8.1 mph - N/A   Clear
12:38 PM 71.6 °F 41.0 °F 33% 30.03 in 10.0 mi NNW 9.2 mph - N/A   Clear
12:58 PM 71.6 °F 41.0 °F 33% 30.03 in 10.0 mi WNW 6.9 mph - N/A   Clear
1:18 PM 73.4 °F 41.0 °F 31% 30.03 in 10.0 mi North 3.5 mph - N/A   Clear
1:38 PM 73.4 °F 41.0 °F 31% 30.03 in 10.0 mi WNW 6.9 mph - N/A   Clear
1:58 PM 71.6 °F 41.0 °F 33% 30.03 in 10.0 mi NW 3.5 mph - N/A   Clear
2:18 PM 71.6 °F 41.0 °F 33% 30.03 in 10.0 mi West 5.8 mph - N/A   Scattered Clouds
2:38 PM 73.4 °F 41.0 °F 31% 30.02 in 10.0 mi WNW 4.6 mph - N/A   Scattered Clouds
2:58 PM 71.6 °F 41.0 °F 33% 30.02 in 10.0 mi West 4.6 mph - N/A   Mostly Cloudy
3:18 PM 75.2 °F 41.0 °F 29% 30.02 in 10.0 mi Calm Calm - N/A   Mostly Cloudy
3:38 PM 69.8 °F 42.8 °F 38% 30.02 in 10.0 mi North 5.8 mph - N/A   Mostly Cloudy
3:58 PM 73.4 °F 41.0 °F 31% 30.02 in 10.0 mi West 4.6 mph - N/A   Clear
4:18 PM 73.4 °F 41.0 °F 31% 30.02 in 10.0 mi WNW 4.6 mph - N/A   Clear
4:38 PM 73.4 °F 41.0 °F 31% 30.01 in 10.0 mi NW 3.5 mph - N/A   Clear
4:58 PM 73.4 °F 41.0 °F 31% 30.01 in 10.0 mi NW 8.1 mph - N/A   Scattered Clouds
5:18 PM 73.4 °F 41.0 °F 31% 30.01 in 10.0 mi WNW 3.5 mph - N/A   Clear
5:38 PM 73.4 °F 41.0 °F 31% 30.01 in 10.0 mi NW 6.9 mph - N/A   Clear
5:58 PM 73.4 °F 41.0 °F 31% 30.01 in 10.0 mi NNW 6.9 mph - N/A   Clear
6:18 PM 73.4 °F 42.8 °F 33% 30.01 in 10.0 mi NW 4.6 mph - N/A   Clear
6:38 PM 71.6 °F 42.8 °F 35% 30.01 in 10.0 mi North 3.5 mph - N/A   Clear
6:58 PM 69.8 °F 41.0 °F 35% 30.01 in 10.0 mi NNW 5.8 mph - N/A   Clear
7:18 PM 69.8 °F 46.4 °F 43% 30.01 in 10.0 mi NNW 3.5 mph - N/A   Clear
7:38 PM 68.0 °F 46.4 °F 46% 30.02 in 10.0 mi Calm Calm - N/A   Clear
7:58 PM 64.4 °F 50.0 °F 59% 30.01 in 10.0 mi Calm Calm - N/A   Clear
8:18 PM 60.8 °F 48.2 °F 63% 30.02 in 10.0 mi Calm Calm - N/A   Clear
8:38 PM 57.2 °F 50.0 °F 77% 30.02 in 10.0 mi Calm Calm - N/A   Clear
8:58 PM 55.4 °F 50.0 °F 82% 30.02 in 10.0 mi Calm Calm - N/A   Clear
9:17 PM 55.4 °F 50.0 °F 82% 30.02 in 10.0 mi Calm Calm - N/A   Clear
9:38 PM 53.6 °F 48.2 °F 82% 30.03 in 10.0 mi Calm Calm - N/A   Clear
9:57 PM 53.6 °F 50.0 °F 88% 30.03 in 10.0 mi Calm Calm - N/A   Clear
10:18 PM 51.8 °F 48.2 °F 88% 30.03 in 10.0 mi Calm Calm - N/A   Clear
10:38 PM 50.0 °F 46.4 °F 87% 30.03 in 10.0 mi Calm Calm - N/A   Clear
10:58 PM 50.0 °F 48.2 °F 94% 30.04 in 10.0 mi Calm Calm - N/A   Clear
11:18 PM 50.0 °F 48.2 °F 94% 30.03 in 10.0 mi Calm Calm - N/A   Clear
11:58 PM 50.0 °F 46.4 °F 87% 30.04 in 10.0 mi Calm Calm - N/A   Clear